Temperature
28 28 28 29 29 29 28 27 27 28 29 28 28 28 27 27 26 26 24 23 22 21 20 19 19 18 18 17 17 17 17 16 16 16 16 16 16 16 15 15 15 15 14 14
28 27 28 29 29 28 28 27 27 28 29 28 28 28 27 27 26 26 24 24 22 21 20 19 18 18 18 17 16 16 16 16 16 16 16 15 15 15 15 15 14 14 14 14
28 28 29 29 28 28 28 27 27 28 28 28 27 27 27 27 26 26 25 24 22 21 20 19 18 18 17 17 16 16 16 16 16 16 15 15 15 14 14 14 14 14 14 14
29 29 29 29 28 28 28 28 28 28 27 27 28 26 26 26 25 25 25 23 22 21 20 19 18 18 17 16 16 16 16 15 15 15 15 14 14 14 14 14 14 13 13 13
28 29 29 28 29 29 28 29 29 28 28 27 27 26 26 25 24 24 24 23 22 21 19 18 18 18 17 16 16 16 15 15 15 15 14 14 14 14 14 13 13 13 13 13
29 30 29 29 29 29 29 29 28 28 28 26 26 25 24 24 24 23 23 22 21 20 19 18 18 17 17 16 16 15 15 14 14 14 14 14 14 13 13 13 13 13 13 13
28 28 29 29 28 28 28 27 26 25 25 25 26 25 24 24 25 24 23 21 20 19 19 18 18 17 17 16 15 15 15 14 14 14 13 13 13 13 13 13 13 12 12 12
26 26 28 29 28 27 27 27 25 24 24 24 25 24 23 24 24 23 22 21 20 19 18 18 17 17 16 16 15 15 14 14 14 13 13 13 13 13 13 12 12 12 12 12
25 25 28 29 29 28 27 27 27 25 24 24 25 24 23 23 23 23 22 20 19 18 18 17 17 16 16 15 15 14 14 14 13 13 13 13 12 12 12 12 12 12 12 11
26 25 27 29 29 28 28 27 26 25 23 22 23 23 22 22 22 22 21 20 19 18 17 16 16 16 15 15 14 14 14 13 13 13 13 12 12 12 12 11 11 11 11 11
26 25 26 27 27 27 27 27 26 25 25 23 22 22 23 22 22 21 20 19 18 18 17 16 16 15 15 14 14 14 13 13 13 12 12 12 12 11 11 11 11 11 11 11
26 25 24 25 27 28 27 27 26 24 24 24 23 22 23 22 22 21 20 19 18 17 17 16 15 15 15 14 14 13 13 13 12 12 12 12 11 11 11 11 11 11 10 10
25 24 23 24 25 26 26 26 26 26 25 24 23 21 22 22 21 20 19 18 17 16 16 16 15 15 14 14 13 13 13 12 12 12 12 11 11 11 11 11 10 10 10 10
24 23 22 22 23 24 25 25 26 26 25 24 23 22 21 21 21 19 18 18 17 16 16 15 15 14 14 14 13 13 12 12 12 11 11 11 11 11 10 10 10 10 10 10
24 23 23 23 25 25 25 25 26 26 25 24 23 22 21 21 20 19 18 17 16 16 15 15 14 14 14 13 13 12 12 12 11 11 11 11 10 10 10 10 10 10 10 10
23 22 23 23 25 25 25 26 26 26 25 25 24 22 22 21 20 18 17 16 16 16 15 15 14 14 13 13 12 12 12 11 11 11 11 11 10 10 10 10 10 10 10 10
23 22 21 22 24 25 24 25 25 25 25 25 23 22 21 20 19 18 17 16 16 16 15 14 14 13 13 12 12 12 11 11 11 11 11 11 10 10 10 10 10 9 9 9
23 22 21 22 22 21 24 26 26 25 25 24 23 22 21 20 19 18 17 16 16 15 14 14 13 13 12 12 12 12 11 11 11 11 11 10 10 10 10 10 9 9 9 9
23 22 21 21 21 22 24 25 25 24 23 24 23 22 21 19 18 18 16 16 15 14 14 13 13 12 12 12 11 11 11 11 11 11 10 10 10 10 10 10 9 9 9 9
24 23 22 21 21 21 23 25 25 24 22 22 22 21 20 19 18 18 16 15 15 14 13 13 13 12 12 11 11 11 11 11 11 11 10 10 10 10 10 9 9 9 9 9
22 22 21 21 21 21 23 24 24 22 21 22 21 20 19 19 18 17 15 15 14 13 13 12 12 12 11 11 11 11 10 10 11 10 10 10 10 10 10 9 9 9 9 9
22 22 21 21 20 21 23 23 22 21 21 21 20 20 19 17 17 16 15 14 14 13 12 12 12 12 11 11 11 10 10 10 10 10 10 10 10 10 10 10 9 9 9 9
22 22 22 21 21 21 22 22 22 21 21 20 20 19 18 17 16 15 14 14 13 13 12 12 12 11 11 11 10 10 10 10 10 10 10 10 10 10 10 10 10 10 10 10
21 21 21 21 21 22 21 21 21 21 20 20 19 18 18 17 16 15 14 13 13 12 12 12 12 11 11 11 10 10 10 10 10 10 10 10 10 10 10 10 10 10 10 10
21 21 21 20 21 21 21 21 20 20 20 19 19 18 17 17 15 15 14 13 13 12 12 12 11 11 11 11 10 10 10 10 10 10 10 10 10 10 10 10 10 10 10 10
21 21 20 20 21 21 20 20 20 19 19 19 18 17 17 16 15 14 14 13 13 12 12 11 11 11 11 11 11 10 10 10 10 10 10 10 10 10 10 11 11 11 11 11
Wind_Speed
10 10 8 8 8 8 6 7 9 7 6 9 8 7 9 11 11 11 12 13 11 11 12 11 10 9 8 7 6 4 4 3 2 1 1 1 1 1 1 1 2 1 2 3
8 10 8 7 6 6 6 6 8 7 5 7 6 7 7 9 9 11 11 11 13 12 12 12 10 9 7 6 5 4 4 3 2 1 1 1 1 0 1 1 2 2 2 2
9 5 5 6 8 8 8 8 9 6 6 7 7 8 8 8 8 9 10 10 11 13 14 12 10 8 8 6 5 4 3 3 2 2 2 2 2 1 0 1 1 1 1 2
7 5 6 8 9 8 8 6 8 6 8 9 8 9 8 7 8 8 8 9 9 9 12 12 11 9 8 7 6 5 5 4 3 3 2 1 2 1 0 0 1 1 1 2
7 6 7 8 8 8 8 7 8 10 11 11 9 9 6 6 8 7 8 9 10 10 12 10 10 9 8 7 7 6 5 4 3 3 3 1 1 1 1 1 1 1 1 1
8 7 7 7 8 8 8 10 11 11 11 11 8 8 4 5 7 7 6 7 10 9 11 11 9 9 8 7 7 7 6 4 3 3 3 3 2 1 1 1 1 1 1 1
8 9 8 7 8 8 8 9 7 7 7 8 7 6 2 2 5 7 9 9 9 9 9 9 10 10 8 8 7 7 6 5 4 3 3 2 1 0 0 1 1 2 1 1
8 8 6 6 7 7 9 10 8 7 9 9 6 4 2 3 5 7 10 10 10 10 9 9 9 8 8 8 7 6 6 5 4 3 3 2 1 1 1 1 2 2 2 2
6 8 7 5 6 8 9 10 8 8 11 10 7 1 1 3 4 7 9 10 9 9 9 9 9 8 7 7 7 6 6 5 4 3 3 2 2 1 1 1 2 2 2 2
7 10 10 7 7 9 9 8 6 6 7 9 9 6 2 3 4 6 7 8 9 8 9 8 8 8 7 7 7 6 5 4 4 3 2 2 2 1 1 1 2 2 3 3
7 9 10 8 7 9 8 8 7 7 7 8 7 4 1 3 5 5 6 8 9 8 9 8 7 8 8 7 6 5 5 4 3 2 2 2 2 2 1 1 2 2 2 2
5 7 9 10 8 7 8 7 8 8 8 9 8 2 1 3 5 7 7 8 8 8 8 8 8 7 7 7 6 5 4 4 3 3 2 2 2 2 2 2 2 1 1 2
7 5 7 9 6 5 8 9 9 9 8 9 8 2 1 3 6 6 8 8 8 7 7 7 7 6 6 6 5 5 5 4 3 3 3 2 2 2 2 2 1 2 2 2
4 8 9 10 9 9 10 12 11 10 9 8 7 3 3 3 5 6 8 8 8 7 7 7 6 5 5 6 5 4 4 3 3 2 3 2 1 1 1 2 2 2 2 2
4 9 11 13 14 13 12 12 12 10 9 9 7 3 5 6 7 7 7 7 7 7 7 6 6 5 5 5 4 4 4 3 2 1 2 2 1 1 1 1 1 2 2 3
5 8 11 14 13 14 14 13 11 9 9 8 6 3 4 7 7 8 8 7 6 6 6 6 6 6 6 5 4 4 3 3 2 1 2 2 1 1 0 1 1 2 3 3
8 8 11 13 13 13 12 9 8 7 7 7 6 1 7 6 7 7 8 7 6 6 6 6 6 5 5 4 4 4 3 3 2 1 1 2 1 0 1 1 2 2 2 3
10 10 8 12 11 12 8 5 4 5 5 4 2 4 6 6 6 6 7 7 6 5 5 6 5 5 4 3 4 4 4 3 2 1 1 1 1 1 1 1 1 1 1 2
10 9 8 9 11 11 9 6 4 5 4 2 2 5 7 6 5 6 7 6 6 6 5 5 5 5 5 4 4 4 3 3 2 2 1 1 1 1 1 1 1 1 1 1
10 9 9 10 11 10 7 3 1 2 3 3 4 5 5 5 3 4 7 7 7 7 5 5 5 5 5 4 4 4 3 2 2 2 2 2 1 1 1 1 1 1 1 2
9 9 11 12 11 8 6 2 2 4 0 3 3 3 4 3 1 7 9 8 8 7 6 5 5 5 4 4 4 4 3 2 2 2 2 2 2 1 1 1 1 1 2 1
10 9 9 9 10 7 3 3 2 1 1 2 3 4 5 5 8 10 9 9 8 8 7 6 5 5 5 4 4 4 3 2 2 2 2 2 1 1 1 1 1 2 2 2
7 6 5 4 4 2 3 2 0 2 2 2 3 4 6 7 9 9 9 9 8 8 7 6 6 6 5 5 4 4 3 3 2 2 2 2 1 1 1 1 2 2 2 3
7 6 7 6 5 4 3 1 1 0 2 3 4 5 6 7 9 10 9 9 8 7 7 6 6 6 6 5 4 4 4 3 3 3 2 2 2 2 2 2 3 2 2 2
11 8 8 9 7 6 5 1 1 0 2 4 6 6 6 8 10 10 9 9 8 7 7 6 5 6 6 5 5 5 4 4 3 2 2 2 3 2 2 2 2 2 1 1
11 10 9 7 6 5 4 3 2 2 2 4 6 6 7 8 9 10 9 9 8 8 7 7 6 6 6 6 6 5 5 4 4 3 3 3 3 2 3 3 2 3 4 5
Wind_Direction
224 238 241 241 234 254 266 257 256 247 212 230 217 202 191 186 185 172 169 173 166 156 150 147 141 138 135 130 132 134 128 121 127 137 163 163 145 147 123 105 83 33 342 330
232 239 262 277 269 274 269 261 256 235 216 234 233 225 207 191 193 182 179 176 165 156 151 146 144 141 136 131 133 139 134 139 153 143 149 149 124 101 106 59 71 49 8 345
249 252 246 260 264 263 265 256 259 256 233 234 244 243 220 204 203 193 178 173 168 162 154 149 149 144 142 137 136 135 129 129 128 128 136 127 128 142 109 119 107 33 1 2
260 253 249 254 257 261 268 264 265 257 257 255 243 254 222 202 198 195 181 170 169 159 148 149 151 149 146 143 137 124 115 106 105 113 118 143 143 151 144 77 80 30 3 353
260 250 249 261 273 279 287 286 272 267 260 265 260 262 237 185 188 192 185 178 165 156 146 149 150 148 142 136 131 125 117 113 108 113 111 104 74 48 48 39 45 357 333 341
270 263 264 271 279 280 289 284 275 265 259 255 264 267 254 200 181 179 167 169 150 147 144 147 145 140 135 133 132 130 127 121 114 112 110 105 97 50 13 348 351 313 292 318
260 244 238 248 263 267 273 276 274 274 269 269 279 269 245 172 159 163 162 158 141 134 139 146 145 144 143 138 133 132 132 128 124 115 102 94 96 174 328 321 322 332 339 6
292 275 247 236 253 271 267 269 273 285 289 295 267 237 183 139 141 150 145 142 135 138 142 146 145 143 138 133 133 134 131 129 126 113 99 89 66 25 21 5 349 345 350 1
300 290 279 257 253 256 267 268 279 285 287 288 285 245 70 73 87 104 121 129 133 138 144 149 139 133 131 134 136 134 127 122 119 117 119 118 100 50 23 357 344 3 352 347
292 287 273 263 257 247 266 279 299 286 284 287 290 290 227 195 177 143 133 134 131 131 132 132 134 133 133 128 123 119 123 126 120 115 116 106 103 84 31 358 15 15 7 357
296 293 287 275 262 274 271 273 280 275 280 287 282 298 161 191 160 143 142 135 132 135 135 132 132 134 136 136 138 135 134 129 126 116 96 75 68 48 24 34 22 12 2 327
306 296 289 284 280 282 281 283 281 284 286 284 289 293 115 146 139 133 135 127 128 129 129 132 134 136 143 144 144 141 135 125 118 108 100 87 71 51 34 33 18 349 329 313
335 305 290 282 271 277 283 283 281 283 286 286 289 281 114 128 118 125 132 128 127 129 129 134 140 145 146 145 149 138 130 123 118 112 107 92 72 44 31 13 351 322 319 322
307 283 274 272 281 285 284 285 283 281 283 289 293 265 221 175 133 132 129 128 131 137 139 141 142 137 144 149 148 137 128 123 132 128 117 106 81 55 33 13 358 341 339 325
270 274 272 270 271 270 274 279 281 279 284 285 288 256 211 181 150 142 137 139 139 145 150 151 148 142 149 145 137 128 123 126 122 125 125 120 99 67 39 1 336 343 337 341
268 275 281 279 272 276 276 275 278 283 283 278 278 269 163 138 133 136 147 152 153 156 156 153 151 148 143 140 140 134 132 132 134 154 149 127 119 94 45 343 7 0 347 355
269 271 281 281 282 283 273 277 281 289 296 306 310 295 128 129 140 150 158 161 159 151 150 151 151 149 147 145 146 148 147 146 171 167 140 134 130 94 22 349 19 7 352 350
264 270 272 277 285 275 281 284 280 288 298 315 346 127 136 142 141 141 152 156 155 149 150 149 150 148 149 146 146 153 153 165 180 163 149 144 135 91 35 32 31 14 351 342
238 252 268 273 270 270 272 275 284 291 294 353 83 109 117 119 134 142 143 148 145 143 139 140 147 150 155 153 156 157 154 158 166 154 150 133 112 95 55 44 18 1 339 315
230 223 245 261 269 275 281 286 329 285 263 88 107 124 138 157 194 163 145 144 140 132 127 132 138 138 143 146 150 154 153 161 167 152 143 124 116 102 61 43 13 345 309 292
247 238 243 257 264 266 286 303 299 275 120 86 126 149 163 207 155 132 137 138 134 131 131 133 137 137 137 138 145 156 159 163 158 148 133 109 112 133 126 87 343 300 286 290
261 263 261 262 265 263 312 293 317 45 122 128 135 144 141 126 124 135 141 138 138 140 142 140 139 135 133 139 149 153 152 145 146 137 119 111 116 197 125 129 268 267 265 262
271 279 278 277 261 268 319 334 79 149 154 154 154 148 148 149 148 148 148 146 145 148 145 143 146 144 141 148 154 156 156 159 156 134 124 137 181 239 214 230 254 252 254 261
278 283 284 280 260 264 263 251 45 248 175 161 159 158 159 155 152 153 151 150 151 152 153 156 154 154 153 160 162 164 170 166 155 148 156 185 214 219 228 249 256 254 265 287
284 285 278 271 269 279 273 244 123 108 175 156 153 155 156 154 154 154 154 155 157 158 157 158 157 164 163 166 172 182 172 161 155 165 180 210 231 227 239 248 278 281 292 269
268 268 268 272 268 272 267 258 202 192 199 169 155 156 156 155 157 157 157 159 160 159 160 162 167 174 171 176 181 180 174 171 169 187 204 225 236 230 237 236 243 252 240 231
Height
1482 1482 1480 1475 1472 1473 1475 1480 1482 1476 1469 1473 1475 1479 1480 1483 1487 1490 1496 1499 1503 1507 1511 1514 1517 1520 1522 1524 1525 1527 1528 1529 1530 1531 1531 1532 1532 1533 1533 1533 1533 1532 1532 1532
1479 1481 1475 1471 1471 1473 1475 1480 1479 1475 1470 1474 1476 1478 1477 1480 1485 1488 1493 1496 1500 1505 1509 1512 1516 1519 1521 1523 1524 1525 1527 1528 1528 1529 1530 1530 1531 1531 1531 1531 1530 1530 1530 1530
1479 1476 1472 1474 1475 1476 1477 1479 1479 1477 1472 1472 1478 1482 1480 1479 1484 1487 1489 1494 1498 1502 1506 1510 1515 1517 1519 1521 1522 1524 1525 1526 1527 1527 1528 1528 1529 1529 1529 1529 1529 1529 1529 1529
1474 1472 1472 1473 1474 1474 1479 1472 1472 1474 1478 1479 1477 1492 1482 1479 1482 1485 1489 1493 1497 1501 1505 1509 1512 1516 1518 1520 1521 1522 1523 1524 1525 1525 1526 1526 1527 1527 1528 1528 1528 1527 1527 1527
1474 1470 1472 1474 1471 1471 1473 1470 1470 1471 1475 1478 1477 1486 1482 1479 1484 1486 1489 1492 1496 1500 1504 1507 1511 1514 1517 1519 1520 1521 1522 1523 1523 1524 1524 1525 1525 1526 1526 1526 1526 1526 1526 1526
1471 1469 1469 1470 1469 1470 1469 1470 1470 1469 1472 1488 1485 1487 1490 1483 1484 1486 1488 1492 1494 1499 1502 1506 1510 1512 1515 1518 1519 1520 1521 1522 1523 1523 1523 1523 1524 1525 1525 1525 1525 1525 1525 1524
1475 1470 1468 1469 1472 1472 1472 1481 1491 1493 1493 1493 1480 1486 1489 1480 1478 1482 1487 1492 1494 1499 1503 1506 1509 1512 1514 1516 1518 1519 1520 1521 1522 1522 1523 1523 1523 1524 1524 1524 1524 1524 1524 1523
1487 1482 1469 1468 1472 1476 1475 1479 1496 1508 1505 1494 1483 1488 1486 1478 1480 1483 1486 1491 1495 1499 1503 1506 1509 1511 1513 1515 1517 1519 1520 1521 1521 1522 1522 1523 1523 1523 1524 1523 1523 1523 1523 1522
1489 1487 1469 1467 1468 1471 1476 1477 1475 1488 1491 1496 1488 1485 1485 1481 1483 1484 1488 1492 1496 1499 1502 1505 1507 1510 1513 1515 1516 1518 1520 1520 1521 1522 1522 1522 1522 1523 1523 1523 1522 1522 1521 1521
1482 1488 1473 1467 1467 1467 1469 1471 1479 1489 1504 1508 1497 1492 1492 1488 1487 1486 1490 1493 1496 1500 1502 1504 1506 1509 1512 1515 1516 1518 1519 1520 1521 1521 1522 1522 1522 1522 1522 1522 1522 1521 1521 1520
1478 1486 1479 1472 1474 1475 1473 1474 1477 1481 1485 1498 1505 1500 1484 1484 1485 1487 1490 1493 1497 1500 1502 1505 1507 1509 1512 1514 1516 1518 1519 1520 1521 1521 1522 1522 1522 1522 1522 1521 1521 1520 1520 1519
1479 1484 1487 1479 1469 1467 1468 1472 1476 1487 1488 1484 1491 1498 1482 1483 1484 1487 1491 1494 1498 1501 1503 1505 1508 1510 1512 1514 1516 1518 1519 1520 1521 1521 1521 1521 1521 1521 1521 1521 1520 1520 1519 1518
1484 1489 1497 1491 1482 1474 1473 1470 1471 1473 1479 1483 1492 1498 1483 1484 1486 1489 1492 1495 1498 1502 1504 1506 1508 1510 1512 1514 1516 1518 1519 1519 1520 1521 1521 1521 1521 1521 1520 1520 1519 1519 1518 1517
1488 1490 1497 1502 1492 1482 1479 1473 1469 1472 1479 1483 1485 1489 1487 1485 1487 1491 1494 1496 1499 1502 1504 1506 1508 1510 1512 1514 1516 1517 1518 1519 1520 1520 1520 1520 1520 1520 1520 1519 1519 1518 1518 1517
1487 1490 1487 1484 1477 1474 1473 1471 1469 1470 1472 1478 1480 1482 1484 1483 1487 1490 1494 1497 1499 1502 1505 1507 1508 1510 1511 1513 1515 1516 1517 1518 1519 1520 1520 1520 1520 1520 1519 1519 1518 1518 1517 1517
1485 1489 1487 1484 1474 1471 1470 1466 1465 1466 1467 1470 1473 1479 1476 1481 1486 1490 1494 1496 1499 1502 1504 1507 1508 1510 1511 1513 1514 1515 1516 1518 1518 1519 1519 1519 1519 1519 1519 1518 1518 1517 1517 1516
1484 1487 1491 1488 1475 1472 1475 1466 1464 1465 1465 1468 1474 1476 1478 1482 1486 1490 1494 1496 1499 1502 1504 1506 1508 1509 1511 1512 1513 1514 1516 1517 1518 1518 1519 1519 1519 1519 1518 1518 1517 1517 1516 1516
1484 1486 1488 1486 1484 1493 1473 1459 1460 1464 1465 1467 1470 1473 1478 1483 1487 1490 1493 1496 1498 1501 1504 1505 1507 1509 1510 1512 1512 1513 1515 1516 1517 1518 1518 1518 1518 1518 1518 1517 1516 1516 1516 1515
1477 1482 1486 1487 1489 1481 1468 1461 1461 1465 1468 1467 1470 1476 1480 1484 1487 1491 1493 1496 1498 1501 1503 1505 1506 1507 1508 1510 1511 1512 1514 1515 1516 1517 1517 1518 1518 1518 1517 1517 1516 1515 1515 1515
1471 1475 1483 1483 1488 1489 1473 1461 1461 1466 1472 1470 1473 1477 1480 1483 1487 1490 1493 1496 1498 1500 1502 1504 1505 1507 1507 1509 1509 1511 1513 1514 1515 1516 1517 1517 1517 1517 1517 1516 1516 1515 1515 1514
1474 1475 1479 1481 1483 1478 1465 1462 1464 1475 1477 1472 1474 1477 1480 1482 1485 1489 1492 1495 1497 1499 1502 1504 1505 1506 1507 1508 1509 1511 1512 1513 1514 1515 1516 1517 1517 1517 1517 1516 1516 1515 1515 1515
1473 1475 1476 1477 1482 1480 1465 1464 1468 1473 1471 1472 1474 1477 1480 1483 1485 1488 1491 1494 1497 1499 1501 1503 1505 1506 1507 1508 1509 1511 1512 1513 1514 1515 1516 1516 1517 1517 1517 1517 1516 1516 1515 1515
1468 1470 1469 1472 1475 1468 1467 1467 1468 1469 1471 1473 1475 1477 1480 1483 1485 1488 1491 1494 1497 1498 1501 1502 1504 1506 1507 1508 1509 1510 1511 1513 1514 1515 1515 1516 1517 1517 1517 1517 1516 1516 1516 1515
1468 1468 1467 1468 1466 1466 1466 1465 1467 1470 1471 1472 1474 1477 1479 1482 1485 1488 1491 1494 1496 1498 1500 1502 1504 1505 1507 1508 1509 1510 1511 1512 1513 1514 1515 1516 1517 1517 1517 1517 1517 1516 1516 1515
1469 1468 1467 1466 1465 1465 1464 1466 1467 1470 1471 1472 1474 1476 1479 1482 1484 1487 1490 1493 1495 1497 1499 1501 1503 1505 1506 1508 1509 1510 1511 1512 1513 1514 1515 1516 1517 1517 1517 1517 1516 1516 1515 1514
1465 1465 1465 1464 1464 1465 1466 1467 1468 1469 1470 1471 1473 1476 1479 1481 1484 1486 1489 1492 1494 1497 1499 1501 1503 1504 1506 1507 1509 1510 1511 1512 1513 1514 1515 1516 1516 1517 1517 1516 1516 1515 1514 1513